Keahole Point, HI

6:19 AM HST on April 30, 2017 (GMT -1000)
Kona International At Keahole

Weather History for PHKO - November, 2011

Change the Weather History Date:

Friday, November 25, 2011

  Actual Average Record
Temperature  
Mean Temperature 76 °F -  
Max Temperature 81 °F 81 °F 89 °F (1985)
Min Temperature 71 °F 69 °F 62 °F (2007)
Cooling Degree Days 11    
Growing Degree Days 26 (Base 50)    
Moisture  
Dew Point 64 °F    
Average Humidity 67    
Maximum Humidity 75    
Minimum Humidity 57    
Precipitation  
Precipitation 0.00 in - - ()
Sea Level Pressure  
Sea Level Pressure 30.05 in    
Wind  
Wind Speed 5 mph (ESE)    
Max Wind Speed 9 mph    
Max Gust Speed -    
Visibility 10 miles    
Events      
Averages and records for this station are not official NWS values.
T = Trace of Precipitation, MM = Missing Value Source: NWS Daily Summary

Daily Weather History Graph

Daily Weather History Graph

Search for Another Location

Airport or City:

Trip Planner

Search our weather history database for the weather conditions in past years. The results will help you decide how hot, cold, wet, or windy it might be!

Date:

Astronomy

Nov. 25, 2011 Rise Set
Actual Time 6:38 AM HST 5:43 PM HST
Civil Twilight 6:15 AM HST 6:07 PM HST
Nautical Twilight 5:48 AM HST 6:34 PM HST
Astronomical Twilight 5:21 AM HST 7:00 PM HST
Moon 7:11 AM HST (11/25) 6:30 PM HST (11/25)
Length of Visible Light 11h 52m
Length of Day
11h 05m
New Moon, 1% of the Moon is Illuminated
Nov 25
New Moon
Dec 1
First Quarter
Dec 10
Full
Dec 17
Last Quarter
Dec 24
New

Hourly Weather History & Observations

Time (HST) Temp. Heat Index Dew Point Humidity Pressure Visibility Wind Dir Wind Speed Gust Speed Precip Events Conditions
12:53 AM 73.0 °F - 62.1 °F 68% 30.05 in 10.0 mi ENE 3.5 mph - N/A   Clear
1:53 AM 73.0 °F - 60.1 °F 64% 30.05 in 10.0 mi ENE 3.5 mph - N/A   Clear
2:53 AM 72.0 °F - 61.0 °F 68% 30.04 in 10.0 mi East 3.5 mph - N/A   Clear
3:53 AM 72.0 °F - 62.1 °F 71% 30.03 in 10.0 mi ENE 4.6 mph - N/A   Clear
4:53 AM 71.1 °F - 62.1 °F 73% 30.03 in 10.0 mi ENE 3.5 mph - N/A   Clear
5:53 AM 71.1 °F - 62.1 °F 73% 30.04 in 10.0 mi East 3.5 mph - N/A   Clear
6:53 AM 71.1 °F - 63.0 °F 75% 30.05 in 10.0 mi East 4.6 mph - N/A   Clear
7:53 AM 75.0 °F - 64.0 °F 69% 30.07 in 10.0 mi East 3.5 mph - N/A   Clear
8:53 AM 77.0 °F - 66.0 °F 69% 30.08 in 10.0 mi WNW 3.5 mph - N/A   Partly Cloudy
9:53 AM 78.1 °F - 66.9 °F 68% 30.08 in 10.0 mi WSW 6.9 mph - N/A   Clear
10:53 AM 79.0 °F - 66.9 °F 66% 30.07 in 10.0 mi SW 8.1 mph - N/A   Clear
11:53 AM 80.1 °F 82.3 °F 66.9 °F 64% 30.06 in 10.0 mi WSW 6.9 mph - N/A   Clear
12:53 PM 80.1 °F 82.7 °F 68.0 °F 67% 30.03 in 10.0 mi WSW 8.1 mph - N/A   Clear
1:53 PM 80.1 °F 82.1 °F 66.0 °F 62% 30.00 in 10.0 mi WSW 8.1 mph - N/A   Clear
2:53 PM 81.0 °F 83.0 °F 66.0 °F 60% 29.99 in 10.0 mi WSW 8.1 mph - N/A   Clear
3:53 PM 80.1 °F 82.1 °F 66.0 °F 62% 30.00 in 10.0 mi SW 8.1 mph - N/A   Clear
4:53 PM 79.0 °F - 66.0 °F 64% 30.01 in 10.0 mi South 9.2 mph - N/A   Clear
5:53 PM 78.1 °F - 66.0 °F 66% 30.02 in 10.0 mi South 6.9 mph - N/A   Scattered Clouds
6:53 PM 77.0 °F - 66.0 °F 69% 30.04 in 10.0 mi SE 5.8 mph - N/A   Scattered Clouds
7:53 PM 75.9 °F - 66.0 °F 71% 30.06 in 10.0 mi ESE 5.8 mph - N/A   Clear
8:53 PM 73.9 °F - 63.0 °F 68% 30.08 in 10.0 mi ENE 4.6 mph - N/A   Clear
9:53 PM 73.9 °F - 64.0 °F 71% 30.08 in 10.0 mi East 3.5 mph - N/A   Mostly Cloudy
10:53 PM 73.9 °F - 64.9 °F 73% 30.08 in 10.0 mi NE 3.5 mph - N/A   Clear
11:53 PM 73.0 °F - 57.0 °F 57% 30.07 in 10.0 mi NNE 6.9 mph - N/A   Clear